Location: Unspecified
(35.7250°N, 0.0000°E)
Time: 23:42:07
(UTC+00:00)

Explorer 7 - Pass Details

Date: 18 June 2019
Orbit: 485 x 680 km, 50.3° (Epoch: 13 October)

Event Time Altitude Azimuth Distance (km) Brightness Sun altitude
Rises 08:16:02 0° 191° (S) 2,705 10.3 40.2°
Reaches altitude 10° 08:18:42 10° 173° (S) 1,855 9.7 40.8°
Maximum altitude 08:21:43 19° 127° (SE) 1,414 9.8 41.4°
Drops below altitude 10° 08:24:52 10° 82° (E) 1,953 10.8 42.0°
Sets 08:27:46 0° 65° (ENE) 2,903 11.2 42.6°
